Time,TemperatureF,DewpointF,PressureIn,WindDirection,WindDirectionDegrees,WindSpeedMPH,WindSpeedGustMPH,Humidity,HourlyPrecipIn,Conditions,Clouds,dailyrainin,SoftwareType,DateUTC
2013-04-04 00:03:00,29.0,13.0,-100.00,East,100,1.0,4.0,50,0.00,,,-99.99,,2013-04-04 04:03:00,
2013-04-04 00:12:00,29.0,13.0,-100.00,ENE,75,1.0,4.0,51,0.00,,,-99.99,,2013-04-04 04:12:00,
2013-04-04 00:23:00,29.0,14.0,-100.00,ENE,65,2.0,4.0,52,0.00,,,-99.99,,2013-04-04 04:23:00,
2013-04-04 00:33:00,29.0,13.0,-100.00,NE,50,1.0,5.0,50,0.00,,,-99.99,,2013-04-04 04:33:00,
2013-04-04 00:43:00,29.0,13.0,-100.00,ENE,75,2.0,4.0,52,0.00,,,-99.99,,2013-04-04 04:43:00,
2013-04-04 00:52:00,29.0,13.0,-100.00,ENE,65,2.0,5.0,50,0.00,,,-99.99,,2013-04-04 04:52:00,
2013-04-04 01:02:00,28.0,13.0,-100.00,ENE,70,3.0,4.0,53,0.00,,,-99.99,,2013-04-04 05:02:00,
2013-04-04 01:13:00,28.0,13.0,-100.00,ENE,75,2.0,3.0,53,0.00,,,-99.99,,2013-04-04 05:13:00,
2013-04-04 01:23:00,28.0,13.0,-100.00,NE,50,1.0,3.0,52,0.00,,,-99.99,,2013-04-04 05:23:00,
2013-04-04 01:32:00,27.0,14.0,-100.00,NNE,25,0.0,3.0,57,0.00,,,-99.99,,2013-04-04 05:32:00,
2013-04-04 01:42:00,28.0,13.0,-100.00,South,185,0.0,2.0,54,0.00,,,-99.99,,2013-04-04 05:42:00,
2013-04-04 01:52:00,27.0,13.0,-100.00,NW,310,0.0,6.0,55,0.00,,,-99.99,,2013-04-04 05:52:00,
2013-04-04 02:02:00,27.0,14.0,-100.00,SW,235,1.0,4.0,57,0.00,,,-99.99,,2013-04-04 06:02:00,
2013-04-04 02:12:00,28.0,13.0,-100.00,East,80,0.0,4.0,53,0.00,,,-99.99,,2013-04-04 06:12:00,
2013-04-04 02:22:00,27.0,14.0,-100.00,WSW,250,1.0,4.0,56,0.00,,,-99.99,,2013-04-04 06:22:00,
2013-04-04 02:32:00,25.0,15.0,-100.00,NNW,335,0.0,4.0,65,0.00,,,-99.99,,2013-04-04 06:32:00,
2013-04-04 02:42:00,25.0,15.0,-100.00,WSW,255,2.0,6.0,63,0.00,,,-99.99,,2013-04-04 06:42:00,
2013-04-04 02:52:00,25.0,13.0,-100.00,SSE,155,0.0,5.0,61,0.00,,,-99.99,,2013-04-04 06:52:00,
2013-04-04 03:02:00,25.0,13.0,-100.00,SSE,155,0.0,5.0,61,0.00,,,-99.99,,2013-04-04 07:02:00,
2013-04-04 03:12:00,23.0,14.0,-100.00,NNE,30,1.0,3.0,69,0.00,,,-99.99,,2013-04-04 07:12:00,
2013-04-04 03:22:00,23.0,15.0,-100.00,NE,50,1.0,3.0,73,0.00,,,-99.99,,2013-04-04 07:22:00,
2013-04-04 03:32:00,23.0,16.0,-100.00,East,95,1.0,2.0,72,0.00,,,-99.99,,2013-04-04 07:32:00,
2013-04-04 03:43:00,24.0,16.0,-100.00,North,5,1.0,3.0,72,0.00,,,-99.99,,2013-04-04 07:43:00,
2013-04-04 03:52:00,23.0,15.0,-100.00,ENE,60,1.0,3.0,72,0.00,,,-99.99,,2013-04-04 07:52:00,
2013-04-04 04:02:00,24.0,15.0,-100.00,NNW,345,1.0,3.0,69,0.00,,,-99.99,,2013-04-04 08:02:00,
2013-04-04 04:12:00,24.0,15.0,-100.00,NNW,345,1.0,3.0,69,0.00,,,-99.99,,2013-04-04 08:12:00,
2013-04-04 04:23:00,23.0,16.0,-100.00,ENE,70,1.0,3.0,73,0.00,,,-99.99,,2013-04-04 08:23:00,
2013-04-04 04:32:00,22.0,16.0,-100.00,North,0,1.0,3.0,75,0.00,,,-99.99,,2013-04-04 08:32:00,
2013-04-04 04:43:00,23.0,16.0,-100.00,East,85,1.0,4.0,73,0.00,,,-99.99,,2013-04-04 08:43:00,
2013-04-04 04:53:00,23.0,15.0,-100.00,ENE,60,1.0,4.0,73,0.00,,,-99.99,,2013-04-04 08:53:00,
2013-04-04 05:03:00,23.0,15.0,-100.00,West,280,1.0,4.0,72,0.00,,,-99.99,,2013-04-04 09:03:00,
2013-04-04 05:12:00,23.0,15.0,-100.00,ENE,60,1.0,4.0,72,0.00,,,-99.99,,2013-04-04 09:12:00,
2013-04-04 05:22:00,24.0,15.0,-100.00,ENE,60,2.0,5.0,69,0.00,,,-99.99,,2013-04-04 09:22:00,
2013-04-04 05:34:00,23.0,16.0,-100.00,NNE,25,1.0,3.0,73,0.00,,,-99.99,,2013-04-04 09:34:00,
2013-04-04 05:43:00,23.0,16.0,-100.00,North,10,1.0,3.0,71,0.00,,,-99.99,,2013-04-04 09:43:00,
2013-04-04 05:53:00,25.0,15.0,-100.00,WSW,250,1.0,6.0,66,0.00,,,-99.99,,2013-04-04 09:53:00,
2013-04-04 06:04:00,24.0,15.0,-100.00,NW,320,1.0,3.0,66,0.00,,,-99.99,,2013-04-04 10:04:00,
2013-04-04 06:12:00,24.0,15.0,-100.00,NE,55,2.0,5.0,66,0.00,,,-99.99,,2013-04-04 10:12:00,
2013-04-04 06:24:00,25.0,14.0,-100.00,ENE,60,4.0,6.0,63,0.00,,,-99.99,,2013-04-04 10:24:00,
2013-04-04 06:33:00,26.0,14.0,-100.00,ENE,75,4.0,6.0,61,0.00,,,-99.99,,2013-04-04 10:33:00,
2013-04-04 06:42:00,26.0,14.0,-100.00,ENE,60,2.0,6.0,62,0.00,,,-99.99,,2013-04-04 10:42:00,
2013-04-04 06:53:00,25.0,14.0,-100.00,ENE,75,1.0,6.0,63,0.00,,,-99.99,,2013-04-04 10:53:00,
2013-04-04 07:03:00,26.0,14.0,-100.00,West,275,1.0,5.0,61,0.00,,,-99.99,,2013-04-04 11:03:00,
2013-04-04 07:12:00,26.0,14.0,-100.00,ENE,75,1.0,5.0,59,0.00,,,-99.99,,2013-04-04 11:12:00,
2013-04-04 07:22:00,26.0,14.0,-100.00,NE,45,2.0,4.0,60,0.00,,,-99.99,,2013-04-04 11:22:00,
2013-04-04 07:33:00,26.0,14.0,-100.00,NE,55,1.0,6.0,60,0.00,,,-99.99,,2013-04-04 11:33:00,
2013-04-04 07:42:00,26.0,14.0,-100.00,East,80,1.0,6.0,60,0.00,,,-99.99,,2013-04-04 11:42:00,
2013-04-04 07:53:00,26.0,14.0,-100.00,ENE,70,1.0,4.0,61,0.00,,,-99.99,,2013-04-04 11:53:00,
2013-04-04 08:03:00,26.0,15.0,-100.00,South,180,1.0,4.0,63,0.00,,,-99.99,,2013-04-04 12:03:00,
2013-04-04 08:12:00,26.0,15.0,-100.00,NNE,30,1.0,4.0,62,0.00,,,-99.99,,2013-04-04 12:12:00,
2013-04-04 08:22:00,26.0,15.0,-100.00,NE,45,3.0,5.0,62,0.00,,,-99.99,,2013-04-04 12:22:00,
2013-04-04 08:33:00,26.0,15.0,-100.00,North,10,2.0,4.0,62,0.00,,,-99.99,,2013-04-04 12:33:00,
2013-04-04 08:43:00,27.0,15.0,-100.00,ENE,75,1.0,6.0,62,0.00,,,-99.99,,2013-04-04 12:43:00,
2013-04-04 08:52:00,27.0,15.0,-100.00,NE,50,1.0,5.0,60,0.00,,,-99.99,,2013-04-04 12:52:00,
2013-04-04 09:02:00,28.0,15.0,-100.00,East,80,2.0,6.0,59,0.00,,,-99.99,,2013-04-04 13:02:00,
2013-04-04 09:12:00,28.0,15.0,-100.00,ENE,65,2.0,6.0,58,0.00,,,-99.99,,2013-04-04 13:12:00,
2013-04-04 09:22:00,29.0,15.0,-100.00,ENE,75,2.0,6.0,56,0.00,,,-99.99,,2013-04-04 13:22:00,
2013-04-04 09:33:00,30.0,15.0,-100.00,NE,55,2.0,6.0,55,0.00,,,-99.99,,2013-04-04 13:33:00,
2013-04-04 09:42:00,30.0,15.0,-100.00,NE,50,3.0,6.0,54,0.00,,,-99.99,,2013-04-04 13:42:00,
2013-04-04 09:52:00,31.0,15.0,-100.00,NE,55,2.0,6.0,51,0.00,,,-99.99,,2013-04-04 13:52:00,
2013-04-04 10:03:00,31.0,15.0,-100.00,NE,40,2.0,6.0,50,0.00,,,-99.99,,2013-04-04 14:03:00,
2013-04-04 10:13:00,33.0,15.0,-100.00,NNE,30,2.0,6.0,47,0.00,,,-99.99,,2013-04-04 14:13:00,
2013-04-04 10:22:00,33.0,15.0,-100.00,NNE,30,2.0,6.0,47,0.00,,,-99.99,,2013-04-04 14:22:00,
2013-04-04 10:33:00,34.0,14.0,-100.00,ENE,60,1.0,7.0,43,0.00,,,-99.99,,2013-04-04 14:33:00,
2013-04-04 10:43:00,34.0,15.0,-100.00,South,175,2.0,3.0,44,0.00,,,-99.99,,2013-04-04 14:43:00,
2013-04-04 10:52:00,34.0,15.0,-100.00,SE,145,1.0,4.0,45,0.00,,,-99.99,,2013-04-04 14:52:00,
2013-04-04 11:03:00,34.0,15.0,-100.00,SE,145,1.0,4.0,45,0.00,,,-99.99,,2013-04-04 15:03:00,
2013-04-04 11:12:00,36.0,15.0,-100.00,SE,125,2.0,4.0,41,0.00,,,-99.99,,2013-04-04 15:12:00,
2013-04-04 11:23:00,37.0,14.0,-100.00,SE,130,2.0,4.0,39,0.00,,,-99.99,,2013-04-04 15:23:00,
2013-04-04 11:33:00,37.0,12.0,-100.00,SE,125,2.0,8.0,35,0.00,,,-99.99,,2013-04-04 15:33:00,
2013-04-04 11:43:00,37.0,13.0,-100.00,SE,135,2.0,5.0,36,0.00,,,-99.99,,2013-04-04 15:43:00,
2013-04-04 11:53:00,38.0,11.0,-100.00,East,85,3.0,6.0,33,0.00,,,-99.99,,2013-04-04 15:53:00,
2013-04-04 12:03:00,39.0,13.0,-100.00,ESE,115,2.0,5.0,34,0.00,,,-99.99,,2013-04-04 16:03:00,
2013-04-04 12:12:00,40.0,11.0,-100.00,ENE,75,4.0,7.0,30,0.00,,,-99.99,,2013-04-04 16:12:00,
2013-04-04 12:24:00,40.0,11.0,-100.00,ESE,105,4.0,7.0,29,0.00,,,-99.99,,2013-04-04 16:24:00,
2013-04-04 12:33:00,42.0,13.0,-100.00,NE,35,2.0,6.0,30,0.00,,,-99.99,,2013-04-04 16:33:00,
2013-04-04 12:42:00,42.0,10.0,-100.00,SE,125,3.0,6.0,27,0.00,,,-99.99,,2013-04-04 16:42:00,
2013-04-04 12:53:00,42.0,11.0,-100.00,SE,145,2.0,6.0,27,0.00,,,-99.99,,2013-04-04 16:53:00,
2013-04-04 13:03:00,44.0,11.0,-100.00,East,85,2.0,6.0,26,0.00,,,-99.99,,2013-04-04 17:03:00,
2013-04-04 13:13:00,45.0,13.0,-100.00,East,100,4.0,6.0,27,0.00,,,-99.99,,2013-04-04 17:13:00,
2013-04-04 13:23:00,44.0,14.0,-100.00,South,190,2.0,3.0,28,0.00,,,-99.99,,2013-04-04 17:23:00,
2013-04-04 13:33:00,45.0,14.0,-100.00,East,100,1.0,6.0,28,0.00,,,-99.99,,2013-04-04 17:33:00,
2013-04-04 13:42:00,46.0,15.0,-100.00,SE,135,4.0,7.0,27,0.00,,,-99.99,,2013-04-04 17:42:00,
2013-04-04 13:52:00,46.0,13.0,-100.00,SSE,150,1.0,9.0,26,0.00,,,-99.99,,2013-04-04 17:52:00,
2013-04-04 14:02:00,46.0,13.0,-100.00,SSE,150,1.0,9.0,26,0.00,,,-99.99,,2013-04-04 18:02:00,
2013-04-04 14:12:00,47.0,15.0,-100.00,SE,125,2.0,7.0,28,0.00,,,-99.99,,2013-04-04 18:12:00,
2013-04-04 14:23:00,48.0,15.0,-100.00,SE,125,2.0,8.0,26,0.00,,,-99.99,,2013-04-04 18:23:00,
2013-04-04 14:32:00,48.0,16.0,-100.00,SSW,200,2.0,7.0,27,0.00,,,-99.99,,2013-04-04 18:32:00,
2013-04-04 14:43:00,48.0,15.0,-100.00,SSW,195,2.0,6.0,26,0.00,,,-99.99,,2013-04-04 18:43:00,
2013-04-04 14:52:00,48.0,14.0,-100.00,ESE,120,2.0,6.0,25,0.00,,,-99.99,,2013-04-04 18:52:00,
2013-04-04 15:02:00,49.0,17.0,-100.00,ESE,120,3.0,6.0,27,0.00,,,-99.99,,2013-04-04 19:02:00,
2013-04-04 15:12:00,49.0,14.0,-100.00,SSW,205,1.0,7.0,23,0.00,,,-99.99,,2013-04-04 19:12:00,
2013-04-04 15:22:00,49.0,13.0,-100.00,SE,145,2.0,5.0,23,0.00,,,-99.99,,2013-04-04 19:22:00,
2013-04-04 15:33:00,50.0,12.0,-100.00,SSW,200,2.0,6.0,21,0.00,,,-99.99,,2013-04-04 19:33:00,
2013-04-04 15:42:00,50.0,13.0,-100.00,SE,135,2.0,6.0,21,0.00,,,-99.99,,2013-04-04 19:42:00,
2013-04-04 15:52:00,50.0,15.0,-100.00,ESE,105,1.0,7.0,23,0.00,,,-99.99,,2013-04-04 19:52:00,
2013-04-04 16:04:00,51.0,13.0,-100.00,SW,220,1.0,7.0,22,0.00,,,-99.99,,2013-04-04 20:04:00,
2013-04-04 16:12:00,51.0,15.0,-100.00,SE,135,1.0,8.0,23,0.00,,,-99.99,,2013-04-04 20:12:00,
2013-04-04 16:23:00,51.0,16.0,-100.00,South,190,2.0,5.0,24,0.00,,,-99.99,,2013-04-04 20:23:00,
2013-04-04 16:32:00,50.0,14.0,-100.00,ESE,110,3.0,5.0,23,0.00,,,-99.99,,2013-04-04 20:32:00,
2013-04-04 16:42:00,52.0,14.0,-100.00,East,95,1.0,7.0,22,0.00,,,-99.99,,2013-04-04 20:42:00,
2013-04-04 16:52:00,52.0,15.0,-100.00,SSE,160,2.0,8.0,22,0.00,,,-99.99,,2013-04-04 20:52:00,
2013-04-04 17:02:00,51.0,14.0,-100.00,SSW,205,1.0,4.0,22,0.00,,,-99.99,,2013-04-04 21:02:00,
2013-04-04 17:12:00,52.0,15.0,-100.00,ENE,75,2.0,6.0,23,0.00,,,-99.99,,2013-04-04 21:12:00,
2013-04-04 17:22:00,51.0,18.0,-100.00,South,175,2.0,4.0,26,0.00,,,-99.99,,2013-04-04 21:22:00,
2013-04-04 17:33:00,51.0,16.0,-100.00,SE,140,1.0,4.0,25,0.00,,,-99.99,,2013-04-04 21:33:00,
2013-04-04 17:43:00,52.0,16.0,-100.00,SSW,210,2.0,7.0,24,0.00,,,-99.99,,2013-04-04 21:43:00,
2013-04-04 17:52:00,52.0,16.0,-100.00,SE,140,1.0,6.0,24,0.00,,,-99.99,,2013-04-04 21:52:00,
2013-04-04 18:04:00,51.0,18.0,-100.00,SE,125,2.0,3.0,26,0.00,,,-99.99,,2013-04-04 22:04:00,
2013-04-04 18:12:00,52.0,20.0,-100.00,SSW,195,2.0,4.0,28,0.00,,,-99.99,,2013-04-04 22:12:00,
2013-04-04 18:22:00,51.0,17.0,-100.00,SSW,200,3.0,5.0,25,0.00,,,-99.99,,2013-04-04 22:22:00,
2013-04-04 18:23:00,52.0,18.0,-100.00,SSE,160,1.0,3.0,25,0.00,,,-99.99,,2013-04-04 22:23:00,
2013-04-04 18:33:00,52.0,17.0,-100.00,SSW,200,3.0,5.0,24,0.00,,,-99.99,,2013-04-04 22:33:00,
2013-04-04 18:42:00,51.0,17.0,-100.00,SSW,200,3.0,5.0,25,0.00,,,-99.99,,2013-04-04 22:42:00,
2013-04-04 18:53:00,51.0,17.0,-100.00,SSW,200,3.0,5.0,25,0.00,,,-99.99,,2013-04-04 22:53:00,
2013-04-04 19:03:00,51.0,17.0,-100.00,SSW,200,3.0,5.0,25,0.00,,,-99.99,,2013-04-04 23:03:00,
2013-04-04 19:12:00,51.0,17.0,-100.00,SSW,200,3.0,5.0,25,0.00,,,-99.99,,2013-04-04 23:12:00,
2013-04-04 19:43:00,50.0,19.0,-100.00,SSW,210,2.0,7.0,29,0.00,,,-99.99,,2013-04-04 23:43:00,
2013-04-04 19:53:00,49.0,20.0,-100.00,SSW,195,2.0,5.0,31,0.00,,,-99.99,,2013-04-04 23:53:00,
2013-04-04 20:03:00,49.0,19.0,-100.00,SSW,205,1.0,7.0,30,0.00,,,-99.99,,2013-04-05 00:03:00,
2013-04-04 20:12:00,49.0,19.0,-100.00,SSW,205,1.0,7.0,30,0.00,,,-99.99,,2013-04-05 00:12:00,
2013-04-04 20:22:00,46.0,22.0,-100.00,SSE,165,1.0,6.0,39,0.00,,,-99.99,,2013-04-05 00:22:00,
2013-04-04 20:33:00,45.0,24.0,-100.00,SSW,205,2.0,6.0,43,0.00,,,-99.99,,2013-04-05 00:33:00,
2013-04-04 20:42:00,43.0,24.0,-100.00,SSW,200,2.0,4.0,45,0.00,,,-99.99,,2013-04-05 00:42:00,
2013-04-04 20:52:00,44.0,23.0,-100.00,SSW,200,2.0,4.0,43,0.00,,,-99.99,,2013-04-05 00:52:00,
2013-04-04 21:02:00,46.0,21.0,-100.00,SW,235,2.0,8.0,37,0.00,,,-99.99,,2013-04-05 01:02:00,
2013-04-04 21:12:00,44.0,22.0,-100.00,SSE,165,0.0,7.0,40,0.00,,,-99.99,,2013-04-05 01:12:00,
2013-04-04 21:22:00,44.0,22.0,-100.00,WSW,255,3.0,7.0,40,0.00,,,-99.99,,2013-04-05 01:22:00,
2013-04-04 21:32:00,44.0,22.0,-100.00,WNW,285,1.0,9.0,42,0.00,,,-99.99,,2013-04-05 01:32:00,
2013-04-04 21:42:00,44.0,22.0,-100.00,SW,220,2.0,5.0,40,0.00,,,-99.99,,2013-04-05 01:42:00,
2013-04-04 21:52:00,44.0,21.0,-100.00,WSW,240,2.0,6.0,39,0.00,,,-99.99,,2013-04-05 01:52:00,
2013-04-04 22:03:00,44.0,23.0,-100.00,WNW,290,1.0,6.0,43,0.00,,,-99.99,,2013-04-05 02:03:00,
2013-04-04 22:12:00,43.0,23.0,-100.00,West,280,3.0,7.0,44,0.00,,,-99.99,,2013-04-05 02:12:00,
2013-04-04 22:22:00,40.0,24.0,-100.00,SSE,155,0.0,7.0,52,0.00,,,-99.99,,2013-04-05 02:22:00,
2013-04-04 22:32:00,40.0,24.0,-100.00,South,170,1.0,4.0,54,0.00,,,-99.99,,2013-04-05 02:32:00,
2013-04-04 22:42:00,39.0,24.0,-100.00,West,270,1.0,6.0,53,0.00,,,-99.99,,2013-04-05 02:42:00,
2013-04-04 22:52:00,41.0,24.0,-100.00,West,275,1.0,6.0,50,0.00,,,-99.99,,2013-04-05 02:52:00,
2013-04-04 23:02:00,38.0,24.0,-100.00,East,85,1.0,6.0,57,0.00,,,-99.99,,2013-04-05 03:02:00,
2013-04-04 23:12:00,39.0,23.0,-100.00,West,280,3.0,6.0,53,0.00,,,-99.99,,2013-04-05 03:12:00,
2013-04-04 23:22:00,39.0,24.0,-100.00,WNW,285,1.0,6.0,55,0.00,,,-99.99,,2013-04-05 03:22:00,
2013-04-04 23:32:00,37.0,24.0,-100.00,SSE,165,1.0,6.0,61,0.00,,,-99.99,,2013-04-05 03:32:00,
2013-04-04 23:43:00,37.0,24.0,-100.00,WNW,290,2.0,6.0,58,0.00,,,-99.99,,2013-04-05 03:43:00,
2013-04-04 23:53:00,37.0,23.0,-100.00,WNW,290,2.0,6.0,58,0.00,,,-99.99,,2013-04-05 03:53:00,